CAPE
0 0 0 0 0 0 0 6 1 1 0 0 0 0 0 0 6 0 0 0 2 1 0 0 0 0 0 0 0 0 0 0 0 0 0 0 0 0 0 0 0 0 0 0 0 0 0 0 0 2 0 0 0 0
0 0 0 0 0 0 2 3 1 0 0 0 0 0 0 1 2 2 0 0 0 0 0 0 0 0 0 0 0 0 0 1 3 0 0 0 0 0 0 0 0 0 0 0 0 0 0 0 0 0 0 0 0 0
0 0 0 0 0 0 1 0 0 0 0 0 0 0 0 11 11 19 4 0 0 4 0 0 0 0 0 0 0 0 0 1 0 1 1 0 0 0 0 0 0 0 0 0 0 0 0 0 0 0 0 0 0 0
0 0 0 0 0 0 0 0 0 0 0 0 0 0 0 1 4 9 6 4 2 2 0 0 0 0 0 0 0 0 0 0 2 1 2 0 0 0 0 0 0 0 0 0 0 0 0 0 0 0 0 0 0 0
0 0 0 0 0 0 0 0 0 0 0 0 0 0 0 0 17 9 4 0 0 1 0 0 0 0 0 0 0 0 0 0 1 0 1 1 0 0 0 0 0 0 0 0 0 0 0 0 0 0 0 0 0 0
0 0 0 0 0 0 0 0 0 0 0 0 0 0 0 1 14 0 0 1 10 11 1 0 0 0 0 0 0 0 0 0 0 1 3 2 0 5 0 0 0 0 0 0 0 0 0 0 0 0 0 0 0 0
0 0 0 0 0 0 0 0 0 0 0 0 0 0 2 7 1 0 0 0 12 1 0 0 0 0 0 0 0 0 0 0 0 2 0 0 0 3 0 0 0 0 0 0 0 0 0 0 0 0 0 0 0 0
0 0 0 0 0 0 0 0 0 0 0 0 0 0 0 0 0 0 6 17 18 2 0 0 0 0 0 0 0 0 0 2 2 3 16 6 5 12 0 0 0 0 0 0 0 0 0 0 0 0 0 0 0 0
0 0 0 0 0 0 0 0 0 0 0 0 0 0 0 0 0 3 0 23 14 0 0 0 0 0 0 0 1 2 1 0 0 6 1 6 0 0 0 0 0 0 0 0 0 0 0 0 0 0 0 0 0 0
0 0 0 0 0 0 0 0 0 0 0 0 0 0 0 0 0 0 1 0 2 2 0 0 0 0 0 0 0 0 4 0 1 3 3 5 1 0 0 0 0 0 0 0 0 0 0 0 0 0 0 0 0 0
0 0 0 0 0 0 0 0 0 0 0 0 0 0 0 0 0 0 0 1 0 0 0 0 2 0 0 0 0 1 0 0 0 0 2 0 0 0 0 0 0 0 0 0 0 0 0 0 0 0 0 0 0 0
0 0 0 0 0 0 0 0 0 0 0 0 0 0 0 0 0 0 0 0 0 0 1 2 0 2 1 0 0 0 0 0 0 0 0 0 0 0 0 0 0 0 0 0 0 0 0 0 0 0 1 1 0 1
0 0 0 0 0 0 0 0 0 0 0 0 0 0 0 0 0 0 0 0 0 0 0 0 0 1 0 1 0 0 0 0 0 1 0 0 0 0 0 0 0 0 0 1 2 2 2 2 1 1 1 1 1 2
0 0 0 0 0 0 0 0 0 0 0 0 0 0 0 0 0 0 0 0 0 0 1 2 1 0 1 0 0 0 0 0 0 0 0 0 0 0 0 0 3 2 2 0 0 1 1 2 2 2 3 0 0 0
0 0 0 0 0 8 7 0 0 0 0 0 0 0 0 0 0 0 0 0 0 2 1 1 1 1 0 0 0 0 0 0 0 0 0 0 0 0 0 1 1 1 0 0 0 0 0 0 0 0 0 0 0 0
0 0 0 0 0 9 0 0 0 0 0 0 0 0 0 0 0 0 0 0 0 0 0 1 0 0 0 0 0 0 0 0 0 0 1 0 0 0 0 0 0 0 0 0 0 0 0 0 0 0 0 0 0 0
0 0 0 0 8 0 0 0 0 0 0 0 0 1 0 0 0 0 0 0 0 0 0 0 0 0 0 0 0 0 0 0 0 0 1 1 0 0 0 0 0 0 0 0 0 0 0 0 0 0 0 0 0 0
0 10 0 0 0 0 0 0 0 0 0 0 0 0 0 0 0 0 0 0 0 0 0 0 0 0 0 0 0 0 1 0 0 0 0 0 0 0 0 0 0 0 0 0 0 0 0 0 0 0 0 0 0 0
0 0 1 2 3 0 0 0 0 0 0 0 0 0 0 0 0 0 0 0 0 0 0 0 0 0 0 0 0 0 0 0 0 0 0 0 0 0 0 0 0 0 0 0 0 0 0 0 0 0 0 0 0 0
0 6 4 1 0 0 0 0 0 0 0 0 0 0 0 0 0 0 0 0 0 0 1 0 0 0 0 0 0 0 0 0 0 0 0 0 0 0 0 0 0 0 0 0 0 0 0 0 0 0 0 0 0 0
0 2 0 0 1 0 0 0 0 0 0 0 0 0 0 0 0 0 0 0 0 0 0 0 0 0 0 0 0 0 0 0 0 0 0 0 0 0 0 0 0 0 0 0 0 0 0 0 0 0 0 0 0 0
1 0 0 1 1 0 0 0 0 0 0 0 0 0 0 0 0 0 0 0 0 0 0 0 0 0 0 0 0 0 0 0 0 0 0 0 0 0 0 0 0 0 0 0 0 0 0 0 0 0 0 0 0 0
0 0 0 0 0 0 0 0 0 0 0 0 0 0 0 0 0 0 0 0 0 0 0 0 0 0 0 0 0 0 0 0 0 0 0 0 0 0 0 0 0 0 0 0 0 0 0 0 0 0 0 0 0 0
0 0 0 0 0 0 0 0 0 0 0 0 0 0 0 0 0 0 0 0 0 0 0 0 0 0 0 0 0 0 0 0 0 0 0 0 0 0 0 0 0 0 0 0 0 0 0 0 0 0 0 0 0 0
0 0 0 0 0 0 0 0 0 0 0 0 0 0 0 0 0 0 0 0 0 0 0 0 0 0 0 0 0 0 0 0 0 0 0 0 0 0 0 0 0 0 0 0 0 0 0 0 0 0 0 0 0 0
0 0 0 0 0 0 0 0 0 0 0 0 0 0 0 0 0 0 0 0 0 0 0 0 0 0 0 0 0 0 0 0 0 0 0 0 0 0 0 0 0 0 0 0 0 0 0 0 0 0 0 0 0 0
0 0 0 0 0 0 0 0 0 0 0 0 0 0 0 0 0 0 0 0 0 0 0 0 0 0 0 0 0 0 0 0 0 0 0 0 0 0 0 0 0 0 0 0 0 0 0 0 0 0 0 0 0 0
0 0 0 0 0 0 0 0 0 0 0 0 0 0 0 0 0 0 0 0 0 0 0 0 0 0 0 0 0 0 0 0 0 0 0 0 0 0 0 0 0 0 0 0 0 0 0 0 0 0 0 0 0 0
0 0 0 0 0 0 0 0 0 0 0 0 0 0 0 0 0 0 0 0 0 0 0 0 0 0 0 0 0 0 0 0 0 0 0 0 0 0 0 0 0 0 0 0 0 0 0 0 0 0 0 0 0 0
0 0 0 0 0 0 0 0 0 0 0 0 0 0 0 0 0 0 0 0 0 0 0 0 0 0 0 0 0 0 0 0 0 0 0 0 0 0 0 0 0 0 0 0 0 0 0 0 0 0 0 0 0 0
0 0 0 0 0 0 0 0 0 0 0 0 0 0 0 0 0 0 0 0 0 0 0 0 0 0 0 0 0 0 0 0 0 0 0 0 0 0 0 0 0 0 0 0 0 0 0 0 0 0 0 0 0 0
0 0 0 0 0 0 0 0 0 0 0 0 0 0 0 0 0 0 0 0 0 0 0 0 0 0 0 0 0 0 0 0 0 0 0 0 0 0 0 0 0 0 0 0 0 0 0 0 0 0 0 0 0 0
0 0 0 0 0 0 0 0 0 0 0 0 0 0 0 0 0 0 0 0 0 0 0 0 0 0 0 0 0 0 0 0 0 0 0 0 0 0 0 0 0 0 0 0 0 0 0 0 0 0 0 0 0 0
CIN
0 0 0 0 0 0 0 0 -2 -4 0 0 0 0 0 0 0 0 0 -2 -2 0 0 0 0 0 0 0 0 0 0 -1 0 0 0 0 0 0 0 0 0 0 0 0 0 0 0 0 0 -6 0 0 -14 0
0 0 0 0 0 0 -1 -1 -1 0 0 0 0 0 0 0 -3 0 0 0 0 0 0 0 0 0 0 0 0 0 0 0 0 0 0 0 0 0 0 0 0 0 0 0 0 0 0 0 0 0 0 0 0 0
0 0 0 0 0 0 0 0 0 0 0 0 0 0 0 0 0 0 -5 0 0 0 0 0 0 0 0 0 0 0 0 0 0 0 0 0 0 0 0 0 0 0 0 0 0 0 0 0 0 0 0 0 0 0
0 0 0 0 0 0 0 0 0 0 0 0 0 0 0 0 -2 0 -4 -9 -7 -1 0 0 0 0 0 0 0 0 0 0 0 0 0 0 0 0 0 0 0 0 0 0 0 0 0 0 0 0 0 0 0 0
0 0 0 0 0 0 0 0 0 0 0 0 0 0 0 0 -3 -1 -12 -5 -2 0 0 0 0 0 0 0 0 0 0 0 0 0 -2 -2 0 -5 0 0 0 0 0 0 0 0 0 0 0 0 0 0 0 0
0 0 0 0 0 0 0 0 0 0 0 0 0 0 0 0 0 -1 0 -9 -4 0 -12 0 0 0 0 0 0 0 0 0 0 0 -1 -3 -1 -3 0 0 0 0 0 0 0 0 0 0 0 0 0 0 0 0
0 0 0 0 0 0 0 0 0 0 0 0 0 0 0 0 -1 -1 0 -1 -4 -2 -2 0 0 0 0 -7 0 0 0 0 0 0 0 0 0 -1 0 0 0 0 0 0 0 0 0 0 0 0 0 0 0 0
0 0 0 0 0 0 0 0 0 0 0 0 0 0 0 0 0 -1 -8 -7 -6 0 0 0 0 0 0 0 0 0 0 0 0 0 -1 -2 -2 -1 -1 0 0 0 0 0 0 0 0 0 0 0 0 0 0 0
0 0 0 0 0 0 0 0 0 0 0 0 0 0 0 0 -2 -14 -7 -1 -2 -1 0 -1 0 0 0 0 0 0 0 -4 0 -1 -3 -2 0 0 0 0 0 0 0 0 0 0 0 0 0 0 0 0 0 0
0 0 0 0 0 0 0 0 0 0 0 0 0 0 0 0 0 0 0 0 0 0 -1 0 0 0 0 0 0 0 -1 0 -2 -2 -3 -2 -1 0 0 0 0 0 0 0 0 0 0 0 0 0 0 0 0 0
0 0 0 0 0 0 0 0 0 0 0 0 0 0 0 0 0 0 0 0 0 0 0 0 0 -1 0 0 0 0 0 -1 -1 0 -2 0 0 0 0 0 0 0 0 0 0 0 0 0 0 0 0 0 0 0
0 0 0 0 0 0 0 0 0 0 0 0 0 0 0 0 0 0 0 0 0 0 0 0 0 0 -1 0 0 0 0 0 0 0 -1 0 0 0 0 0 0 0 0 0 0 0 0 0 0 0 0 0 0 0
0 0 0 0 0 0 0 0 0 0 0 0 0 0 0 0 0 0 0 0 0 0 0 0 0 0 -1 0 0 0 0 0 0 -1 0 0 0 0 0 0 0 0 0 0 0 0 0 0 0 0 0 0 0 0
0 0 0 0 0 0 0 0 0 0 0 0 0 0 0 0 0 0 0 0 0 0 0 0 0 0 0 0 0 0 0 0 0 0 0 0 0 0 0 0 0 0 0 0 0 0 0 0 0 0 0 0 0 0
0 0 0 0 0 -1 0 0 0 0 0 0 0 0 0 0 0 0 0 0 0 -1 -1 0 0 0 0 0 0 0 0 0 0 0 0 0 0 0 0 0 0 0 0 0 0 0 0 0 0 0 0 0 0 0
0 0 0 0 0 -1 -1 0 0 0 0 0 0 0 0 0 0 0 0 0 0 -1 0 0 0 0 0 0 0 0 0 0 0 0 0 0 0 0 0 0 0 0 0 0 0 0 0 0 0 0 0 0 0 0
0 0 0 0 0 0 0 0 0 0 0 0 0 0 0 0 0 0 0 0 0 0 0 0 0 0 0 0 0 0 0 0 0 0 0 0 0 0 0 0 0 0 0 0 0 0 0 0 0 0 0 0 0 0
-1 0 -1 0 -4 0 0 0 0 0 0 0 0 0 0 0 0 0 0 0 0 0 0 0 0 0 0 0 0 0 0 0 0 0 0 0 0 0 0 0 0 0 0 0 0 0 0 0 0 0 0 0 0 0
0 0 -1 -19 -16 0 0 0 0 0 0 0 0 0 0 0 -1 0 0 0 0 0 0 0 0 0 0 0 0 0 0 0 0 0 0 0 0 0 0 0 0 0 0 0 0 0 0 0 0 0 0 0 0 0
0 0 -1 -13 -7 0 0 0 0 0 0 0 0 0 0 0 0 0 0 0 0 0 0 0 0 0 0 0 0 0 0 0 0 0 0 0 0 0 0 0 0 0 0 0 0 0 0 0 0 0 0 0 0 0
0 -1 0 -12 -17 -1 0 0 0 0 0 0 0 0 0 0 0 0 0 0 0 0 0 0 0 0 0 0 0 0 0 0 0 0 0 0 0 0 0 0 0 0 0 0 0 0 0 0 0 0 0 0 0 0
0 -2 0 -15 -3 0 0 0 0 0 0 0 0 0 0 0 0 0 0 0 0 0 0 0 0 0 0 0 0 0 0 0 0 0 0 0 0 0 0 0 0 0 0 0 0 0 0 0 0 0 0 0 0 0
-1 -2 -3 0 0 0 0 0 0 0 0 0 0 0 0 0 0 0 0 0 0 0 0 0 0 0 0 0 0 0 0 0 0 0 0 0 0 0 0 0 0 0 0 0 0 0 0 0 0 0 0 0 0 0
-2 -4 0 0 0 0 0 0 0 0 0 0 0 0 0 0 0 0 0 0 0 0 0 0 0 0 0 0 0 0 0 0 0 0 0 0 0 0 0 0 0 0 0 0 0 0 0 0 0 0 0 0 0 0
0 0 0 0 0 0 0 0 0 0 0 0 0 0 0 0 0 0 0 0 0 0 0 0 0 0 0 0 0 0 0 0 0 0 0 0 0 0 0 0 0 0 0 0 0 0 0 0 0 0 0 0 0 0
0 0 0 0 0 0 0 0 0 0 0 0 0 0 0 0 0 0 0 0 0 0 0 0 0 0 0 0 0 0 0 0 0 0 0 0 0 0 0 0 0 0 0 0 0 0 0 0 0 0 0 0 0 0
0 0 0 0 0 0 0 0 0 0 0 0 0 0 0 0 0 0 0 0 0 0 0 0 0 0 0 0 0 0 0 0 0 0 0 0 0 0 0 0 0 0 0 0 0 0 0 0 0 0 0 0 0 0
0 0 0 0 0 0 0 0 0 0 0 0 0 0 0 0 0 0 0 0 0 0 0 0 0 0 0 0 0 0 0 0 0 0 0 0 0 0 0 0 0 0 0 0 0 0 0 0 0 0 0 0 0 0
0 0 0 0 0 0 0 0 0 0 0 0 0 0 0 0 0 0 0 0 0 0 0 0 0 0 0 0 0 0 0 0 0 0 0 0 0 0 0 0 0 0 0 0 0 0 0 0 0 0 0 0 0 0
0 0 0 0 0 0 0 0 0 0 0 0 0 0 0 0 0 0 0 0 0 0 0 0 0 0 0 0 0 0 0 0 0 0 0 0 0 0 0 0 0 0 0 0 0 0 0 0 0 0 0 0 0 0
0 0 0 0 0 0 0 0 0 0 0 0 0 0 0 0 0 0 0 0 0 0 0 0 0 0 0 0 0 0 0 0 0 0 0 0 0 0 0 0 0 0 0 0 0 0 0 0 0 0 0 0 0 0
0 0 0 0 0 0 0 0 0 0 0 0 0 0 0 0 0 0 0 0 0 0 0 0 0 0 0 0 0 0 0 0 0 0 0 0 0 0 0 0 0 0 0 0 0 0 0 0 0 0 0 0 0 0
0 0 0 0 0 0 0 0 0 0 0 0 0 0 0 0 0 0 0 0 0 0 0 0 0 0 0 0 0 0 0 0 0 0 0 0 0 0 0 0 0 0 0 0 0 0 0 0 0 0 0 0 0 0
Wind_Speed
12 8 2 2 7 11 13 14 17 18 21 25 28 29 30 30 28 24 23 22 23 20 17 12 21 26 29 27 25 23 21 17 19 16 16 17 16 16 16 17 16 14 14 14 13 14 15 12 11 10 13 10 7 7
13 8 3 3 6 10 12 13 16 18 21 24 27 28 27 27 27 23 22 20 19 18 19 13 32 32 30 29 29 21 19 20 18 17 16 18 17 17 17 17 16 16 15 15 14 14 14 13 15 13 11 10 12 12
13 7 2 1 5 8 10 13 15 17 20 24 26 27 27 26 26 24 21 19 21 22 24 20 20 22 23 26 20 21 20 18 16 18 18 18 18 17 18 18 17 16 16 16 15 15 13 12 11 12 12 12 14 14
12 7 2 1 4 7 10 13 15 17 21 23 24 25 25 26 25 22 20 19 19 21 21 21 21 32 28 21 19 22 26 20 21 22 19 19 19 17 18 19 19 18 17 16 17 15 12 14 13 12 13 13 15 16
12 7 3 3 5 7 10 13 15 17 19 21 22 23 23 23 24 21 18 18 16 21 22 18 21 20 23 25 28 30 29 25 22 21 20 19 19 19 19 19 21 16 16 16 18 15 16 15 13 14 14 15 16 17
12 8 4 4 5 7 10 13 14 17 20 21 19 21 21 22 23 22 24 21 22 22 21 18 24 21 24 25 24 24 19 18 17 21 20 19 19 18 18 18 18 17 17 14 16 14 15 11 13 15 16 17 19 19
11 8 6 3 4 8 11 13 15 17 21 22 21 20 19 18 19 21 22 19 16 20 20 18 21 21 20 19 17 16 17 19 18 22 22 22 20 17 19 21 20 19 16 16 12 12 15 14 17 16 17 18 19 19
12 9 5 2 5 8 11 14 16 18 21 22 21 20 21 20 20 21 17 18 19 20 21 20 19 19 18 18 17 17 17 19 19 22 21 22 21 19 21 20 18 18 16 17 18 19 19 14 15 16 19 21 22 23
12 8 4 2 5 9 12 15 18 19 22 21 19 19 21 21 23 21 13 14 16 20 22 21 22 20 21 20 21 19 17 21 20 21 21 19 20 20 18 19 17 17 19 19 19 19 18 17 18 21 22 22 23 24
11 7 3 2 6 9 13 16 19 22 24 23 23 24 25 21 17 16 19 18 16 18 20 20 20 21 21 21 19 19 18 21 21 20 17 21 25 22 20 19 17 17 20 20 19 19 20 21 22 23 24 23 23 25
9 5 1 3 6 10 13 17 20 23 22 23 26 23 20 18 20 19 22 22 18 15 16 19 20 25 20 17 20 20 19 19 22 19 19 22 21 19 16 16 17 18 18 19 20 20 21 21 22 25 26 27 26 26
7 3 1 4 7 10 13 17 20 21 20 21 20 20 19 21 20 23 24 22 19 17 20 23 29 30 24 17 20 21 21 19 22 15 20 22 20 17 15 15 17 19 19 20 21 21 22 22 22 23 24 25 26 26
5 2 4 7 9 11 13 16 18 20 19 21 21 22 22 21 24 27 28 25 23 16 19 25 32 25 20 19 21 19 18 21 15 18 21 21 19 15 13 15 17 18 18 18 19 19 19 19 19 20 21 22 23 24
4 3 6 9 10 11 12 13 16 19 20 23 24 26 22 23 22 23 26 23 19 16 22 32 27 24 20 19 19 20 20 17 18 20 20 19 18 12 12 13 12 13 14 15 16 16 17 17 17 18 19 21 22 22
4 6 9 12 12 11 9 12 15 19 20 22 21 23 20 16 18 20 20 21 20 16 27 31 24 22 21 21 18 18 18 20 20 21 19 20 18 13 13 9 8 9 12 15 17 17 17 18 18 19 20 21 22 22
5 10 15 14 11 9 8 12 17 18 19 19 19 20 18 20 22 22 21 20 20 20 28 22 21 22 21 19 18 17 18 19 19 20 22 22 19 14 8 7 8 8 11 14 16 17 18 19 20 21 22 23 23 23
11 16 13 9 6 8 11 15 17 19 20 20 20 17 18 20 20 21 20 20 18 20 20 22 22 21 22 21 19 18 17 18 20 21 23 23 19 11 6 6 7 9 11 14 16 18 19 20 22 23 24 24 23 23
14 9 6 6 8 12 15 17 18 19 20 18 21 19 19 19 20 20 18 17 17 16 23 23 25 25 22 20 16 17 18 20 20 20 21 20 16 12 9 7 8 11 12 15 16 18 22 23 23 23 23 23 22 24
8 7 7 8 11 15 17 18 17 20 17 20 19 19 20 20 18 16 16 14 14 19 25 25 26 25 24 20 21 22 23 23 23 23 21 19 15 14 12 10 12 13 14 15 16 19 23 23 22 23 23 24 24 25
9 7 8 12 14 16 18 18 17 18 22 19 18 19 19 20 19 16 15 14 15 18 24 27 28 27 27 27 26 28 28 26 25 25 22 18 16 15 14 15 14 14 15 16 18 19 22 22 22 23 24 24 25 26
11 12 12 14 17 17 18 16 17 18 19 18 18 19 20 20 19 16 14 13 15 17 24 26 28 31 30 32 32 30 29 27 26 25 25 24 21 19 18 17 17 17 19 20 21 20 21 23 24 24 24 24 24 25
13 11 15 16 18 18 18 17 19 19 18 18 19 20 21 20 19 14 13 13 13 17 19 23 25 27 30 31 31 32 31 30 29 27 27 25 24 22 21 19 18 20 21 22 21 22 21 22 25 25 25 25 26 27
12 14 17 17 18 20 22 18 19 19 21 21 20 22 20 17 13 16 14 15 17 17 18 21 23 24 26 26 26 26 26 26 26 25 24 23 23 20 19 18 18 20 22 22 19 20 22 24 25 25 25 26 27 29
13 16 18 19 19 23 20 20 18 20 22 23 21 22 17 13 14 14 15 17 15 14 16 19 21 22 22 22 22 22 23 23 24 24 22 21 21 20 19 19 20 20 20 20 20 22 24 25 25 25 27 28 30 32
18 20 19 21 20 21 21 21 21 20 22 18 18 17 11 12 13 15 18 19 11 9 13 17 19 20 22 23 23 22 21 21 22 23 22 21 20 20 21 21 21 20 19 20 22 24 24 24 25 26 28 31 33 34
21 19 18 21 21 21 21 23 20 20 18 17 13 12 12 14 13 14 19 15 7 6 11 16 20 22 23 23 24 24 23 21 20 21 21 19 19 20 21 21 22 22 19 19 22 24 24 25 27 28 31 32 32 33
21 20 18 17 17 19 20 19 17 16 16 13 11 11 13 13 15 21 20 15 10 9 11 15 18 24 26 26 26 25 24 23 23 22 21 20 19 18 18 20 22 22 20 20 21 23 26 27 28 29 30 31 31 32
20 19 19 16 15 15 19 18 15 14 12 12 12 11 14 15 20 19 18 18 12 15 17 20 22 24 28 29 28 27 27 25 25 24 24 24 21 19 18 18 19 20 20 20 22 23 25 26 28 29 31 32 32 31
18 15 14 16 16 15 15 15 14 14 20 15 19 22 26 25 23 22 23 21 20 22 26 32 35 32 33 30 29 28 26 26 28 30 29 28 25 23 18 18 19 19 21 23 25 25 25 27 28 28 27 28 28 28
15 8 13 13 13 14 14 10 19 23 24 26 27 30 31 32 34 31 31 30 31 34 34 37 37 35 39 37 36 33 26 24 24 27 32 31 28 23 17 17 17 19 21 23 25 26 25 25 26 25 25 26 26 26
12 11 15 15 17 20 21 25 29 30 29 30 29 36 42 40 39 36 30 28 29 31 35 39 38 34 35 36 36 36 37 29 26 24 19 20 20 18 16 16 17 19 20 21 22 23 23 23 23 24 24 24 25 25
13 13 16 19 25 24 25 25 26 26 25 26 29 28 32 34 41 39 29 23 25 28 28 28 32 37 32 30 29 28 29 29 27 27 22 12 11 15 15 14 15 17 18 18 18 18 19 19 20 21 22 23 24 25
17 18 21 24 24 23 22 24 27 31 31 33 35 33 34 34 38 36 31 27 27 28 28 28 28 28 28 29 30 30 30 29 27 23 18 9 7 9 11 13 14 14 14 14 14 15 16 17 19 20 21 22 23 25
Wind_Direction
181 182 182 10 10 10 13 26 30 35 31 26 24 23 23 23 23 27 25 31 22 16 6 12 322 307 284 277 273 279 283 295 283 291 284 281 288 288 289 290 298 301 298 294 297 297 299 298 297 315 311 318 351 354
182 184 198 335 8 13 27 35 35 36 31 27 23 22 24 22 22 26 23 24 25 12 358 356 266 261 260 250 256 275 276 284 293 281 286 280 283 284 283 279 292 283 286 284 297 299 301 290 291 292 299 322 307 315
182 187 209 356 19 29 37 37 36 34 27 23 23 23 23 21 20 21 18 18 15 7 3 17 344 293 287 272 272 274 274 287 295 292 283 284 284 293 283 284 287 286 285 284 287 288 295 300 304 302 308 314 312 314
182 186 200 27 29 48 44 39 33 30 23 25 24 25 24 20 18 19 17 14 12 9 9 6 347 277 285 282 275 266 261 281 284 285 282 284 283 297 290 288 286 285 288 287 282 286 299 295 305 310 311 311 307 305
180 184 166 86 61 50 40 34 30 26 26 28 26 26 25 22 18 17 18 24 26 15 3 359 270 295 288 267 261 256 255 262 271 274 275 280 287 292 296 293 280 288 289 291 285 289 288 298 304 306 312 312 315 309
179 179 152 105 58 39 31 26 25 20 20 26 32 25 23 21 21 24 25 35 33 18 13 22 336 285 283 278 262 257 259 264 279 266 274 283 290 294 291 289 281 284 291 304 299 310 305 320 313 314 318 317 314 311
182 168 147 108 36 26 24 21 15 17 14 19 22 20 18 21 31 27 23 25 25 23 25 28 359 314 293 282 278 265 253 257 270 266 271 277 282 301 290 282 288 291 298 305 320 329 312 313 307 314 318 317 315 315
171 159 153 72 25 17 12 8 2 13 13 16 18 21 27 39 47 38 46 36 46 42 34 42 18 313 312 286 276 265 259 259 270 267 273 275 279 289 286 283 291 297 307 301 301 299 301 319 319 319 318 314 310 306
168 163 154 51 14 5 4 359 358 5 10 17 25 34 37 41 30 32 37 48 56 51 38 33 29 5 310 291 271 264 266 259 269 272 276 285 281 285 293 300 307 302 302 303 303 305 311 317 317 313 314 314 310 306
168 169 150 35 10 8 5 353 354 357 3 16 22 19 20 30 27 37 46 39 46 44 32 24 14 10 330 306 272 271 267 263 268 275 284 282 279 289 300 307 312 310 304 304 308 307 312 313 310 308 310 313 313 308
168 171 123 2 12 360 355 348 350 356 10 15 11 17 19 32 38 41 28 26 28 31 33 9 355 349 351 316 277 268 275 267 266 276 273 277 285 299 310 309 310 312 313 313 312 313 315 316 312 308 307 307 308 307
175 190 340 350 346 349 344 346 351 4 12 11 15 21 25 26 26 19 19 24 22 15 5 358 326 317 321 299 271 273 269 270 264 278 268 275 285 301 316 321 317 316 316 317 317 315 314 314 315 315 313 310 309 309
206 249 324 331 337 335 336 345 355 5 13 11 16 16 16 21 8 7 6 9 7 9 355 342 317 317 301 286 271 277 275 268 287 274 270 278 293 311 328 331 329 328 329 328 326 326 322 323 323 321 316 315 314 315
235 301 323 325 327 327 339 351 358 4 2 359 358 353 3 3 6 8 3 1 2 1 339 314 320 301 293 291 283 282 274 284 279 278 283 289 306 328 330 333 347 358 7 9 2 357 352 345 336 331 327 320 320 322
286 314 318 318 319 324 345 354 358 357 359 352 357 352 355 8 8 6 6 0 359 359 321 309 321 299 287 279 288 283 279 274 275 281 293 298 307 322 314 347 0 22 28 27 24 4 352 343 336 333 330 326 327 324
319 323 312 315 315 330 352 350 345 351 355 353 351 349 354 350 352 357 358 355 2 357 309 303 313 285 279 278 284 283 281 278 284 286 279 284 298 316 322 307 305 344 16 14 1 344 333 329 332 336 334 329 331 330
316 312 318 323 340 349 341 337 339 338 341 346 345 350 344 343 343 349 357 354 2 353 331 299 283 273 277 275 278 279 282 280 280 282 281 282 300 320 308 296 305 327 0 11 7 349 314 301 314 328 332 331 333 332
312 343 14 359 336 334 331 331 333 335 334 337 337 344 345 345 344 345 353 355 356 349 300 284 274 266 269 278 280 287 286 281 290 292 293 297 304 290 283 298 310 322 348 2 1 4 335 322 329 330 327 326 353 336
329 338 340 337 331 327 327 329 333 333 335 338 337 337 341 342 343 344 347 358 355 326 287 275 267 261 263 275 284 286 288 287 285 290 299 303 302 286 280 291 301 316 337 351 2 351 334 322 331 332 329 333 336 339
340 340 333 325 330 324 327 336 338 337 337 342 342 343 346 347 348 351 349 354 345 321 286 268 267 267 270 275 281 281 282 287 288 285 290 302 299 293 291 285 301 317 330 341 345 347 334 332 329 335 340 344 340 333
322 323 326 324 320 325 332 338 335 338 342 340 343 345 345 346 344 346 348 346 337 319 288 277 276 273 277 277 278 280 282 286 285 283 280 280 291 291 292 297 301 309 314 323 330 336 334 329 320 329 339 343 347 346
320 331 323 321 319 324 327 330 331 336 334 337 340 343 339 339 341 351 343 340 336 318 302 290 288 286 282 279 279 275 275 279 278 280 279 284 285 290 293 298 305 307 313 317 322 325 332 331 321 326 332 335 339 339
334 326 323 324 319 322 324 334 326 327 324 330 336 336 337 340 351 338 335 318 309 310 306 292 291 297 294 295 292 285 282 283 284 285 287 287 290 295 300 306 309 310 312 317 324 326 326 323 322 325 330 333 334 333
337 321 320 322 318 319 328 325 329 326 324 323 327 328 331 338 336 331 320 305 298 314 317 305 299 300 307 309 308 301 294 290 287 288 291 293 294 297 304 310 312 314 317 320 325 325 324 324 326 328 329 330 330 330
315 316 321 317 322 320 320 324 325 324 320 323 328 333 343 333 325 316 304 291 293 317 333 324 316 312 312 311 309 310 307 303 296 290 292 294 296 300 303 308 312 316 322 322 322 323 325 328 329 329 328 327 326 327
311 317 318 318 318 318 319 316 320 323 326 323 328 340 329 316 314 307 292 293 287 313 329 329 321 317 313 314 314 313 313 312 309 301 299 301 301 301 303 306 310 314 325 326 325 325 327 328 328 327 326 327 328 329
309 312 321 323 326 329 327 325 323 326 325 323 326 321 312 310 301 279 288 288 290 309 331 336 342 320 310 311 315 315 317 312 307 304 304 304 305 307 308 310 312 320 329 330 330 330 328 328 329 329 329 330 329 328
311 316 312 318 319 323 325 327 324 320 324 320 308 303 305 294 283 289 294 296 300 307 312 316 322 324 315 310 314 316 316 316 311 304 299 296 300 305 311 317 321 326 331 334 334 334 332 330 329 328 327 326 326 330
312 319 318 311 315 320 320 321 315 308 297 305 295 287 275 278 288 295 299 301 299 300 300 296 294 302 300 306 311 316 316 315 305 298 293 293 297 299 303 310 317 324 328 328 328 329 330 330 330 332 335 335 334 337
316 331 322 321 318 316 322 324 308 291 285 283 281 279 281 285 286 293 294 296 292 290 293 292 295 299 286 289 289 299 315 316 313 306 289 285 292 302 308 311 315 319 322 326 327 328 332 335 336 339 341 344 346 348
329 328 321 320 317 315 309 296 282 281 286 287 289 279 265 282 286 292 295 297 296 295 291 287 289 293 291 289 290 291 292 309 309 308 310 303 302 308 313 318 320 322 325 328 330 333 336 341 346 349 351 354 356 358
317 322 320 318 304 306 302 295 293 297 303 303 300 302 299 298 289 293 302 302 300 297 296 295 290 287 295 297 299 301 302 304 305 302 306 310 308 310 315 323 327 328 330 333 337 344 349 353 357 0 4 6 8 10
316 319 317 311 312 314 315 310 306 304 305 303 302 302 300 299 296 299 305 302 296 294 294 295 296 297 296 294 293 295 294 295 298 301 304 316 326 326 325 328 332 337 343 348 353 359 2 4 6 8 10 11 12 8